Flag for U.S.A. Weather past 2 weeks in Springfield, Illinois, U.S.A.

Now
39 °F

Overcast.


Feels Like: 30 °F
Forecast: 36 / 48 °F
Wind: 16 mph from Southeast

Location: Capital Airport

Current Time: Dec 21, 2014 at 10:17:56 PM

Latest Report: Dec 21, 2014 at 8:52 PM


Visibility: 10 mi

Pressure: 30.01 "Hg

Humidity: 70%

Dew point: 30 °F

Location of SpringfieldLocation

Historic Weather in Springfield — Graph

°F

Springfield temperature yesterday

Maximum temperature yesterday: 38 °F (at 12:52 PM)
Minimum temperature yesterday: 31 °F (at 12:52 AM)
Average temperature yesterday: 35 °F

Past Weeks' High & Low Weather Summary

 TemperatureHumidityPressure
High54 °F (Dec 13, 1:52 PM)100% (Dec 14, 5:52 AM)30.63 "Hg (Dec 14, 5:52 AM)
Low21 °F (Dec 17, 6:52 PM)59% (Dec 19, 11:52 AM)29.67 "Hg (Dec 15, 6:52 PM)
Average36 °F82%30.24 "Hg
* Reported Dec 6 8:52 PM — Dec 21 8:52 PM, Springfield, Weather by CustomWeather, © 2014

Note: Actual official high and low records may vary slightly from our data, if they occured in-between our weather recording intervals... More about our weather records

Advertising

Springfield weather history for previous 24 hours

 ConditionsComfort  
Time TempWeatherWind HumidityBarometerVisibility
8:52 PM
Dec 21
39 °FOvercast.16 mph70%30.01 "Hg10 mi
7:52 PM39 °FOvercast.14 mph70%30.03 "Hg10 mi
6:52 PM39 °FOvercast.13 mph70%30.02 "Hg10 mi
5:52 PM38 °FPassing clouds.12 mph76%30.03 "Hg10 mi
4:52 PM38 °FClear.12 mph73%30.04 "Hg10 mi
3:52 PM40 °FOvercast.14 mph73%30.06 "Hg10 mi
2:59 PM40 °FOvercast.14 mph70%30.06 "Hg10 mi
1:52 PM39 °FOvercast.15 mph73%30.08 "Hg10 mi
12:52 PM39 °FOvercast.14 mph73%30.11 "Hg10 mi
11:52 AM39 °FOvercast.12 mph73%30.16 "Hg10 mi
10:52 AM38 °FOvercast.14 mph76%30.20 "Hg10 mi
9:52 AM38 °FOvercast.14 mph76%30.22 "Hg10 mi
8:52 AM38 °FOvercast.13 mph76%30.21 "Hg10 mi
7:52 AM38 °FOvercast.13 mph76%30.22 "Hg10 mi
6:52 AM38 °FOvercast.10 mph79%30.22 "Hg10 mi
5:52 AM37 °FOvercast.10 mph79%30.22 "Hg10 mi
4:52 AM37 °FOvercast.9 mph79%30.21 "Hg10 mi
3:52 AM37 °FOvercast.9 mph79%30.22 "Hg10 mi
2:52 AM37 °FOvercast.12 mph79%30.23 "Hg10 mi
1:52 AM37 °FOvercast.9 mph79%30.24 "Hg10 mi
12:52 AM37 °FOvercast.13 mph79%30.24 "Hg10 mi
11:52 PM
Dec 20
37 °FOvercast.12 mph79%30.25 "Hg10 mi
10:52 PM37 °FOvercast.10 mph79%30.26 "Hg10 mi
Weather by CustomWeather, © 2014

See weather overviewHow to use our weather pages